Regional Weather Roundup
Issued by NWS

Home | Current Version | Previous Version | Text Only | Print | Product List | Glossary Off
Versions: 1 2 3 4 5 6 7 8 9 10 11 12 13 14 15 16 17 18 19 20 21 22 23 24 25 26 27 28 29 30 31 32 33 34 35 36 37 38 39 40 41 42 43 44 45 46 47 48 49 50

051
ASUS43 KMKX 202200
RWRWI

WISCONSIN REGIONAL WEATHER ROUNDUP
NATIONAL WEATHER SERVICE MILWAUKEE/SULLIVAN WI
400 PM CST MON FEB 20 2017

NOTE: "FAIR" INDICATES FEW OR NO CLOUDS BELOW 12,000 FEET WITH NO
SIGNIFICANT WEATHER AND/OR OBSTRUCTIONS TO VISIBILITY.

WIZ001-002-006>008-014>016-023>028-202300-
NORTHWEST WISCONSIN

CITY           SKY/WX    TMP DP  RH WIND       PRES   REMARKS
SUPERIOR ARPT  RAIN      35  35  99 E12       29.68F WCI  27
ASHLAND        LGT RAIN  49  46  90 S9        29.70S FOG
HAYWARD        RAIN      48  45  89 SE15G22   29.69F FOG
SIREN          LGT RAIN  48  46  95 S13       29.66F
CUMBERLAND     RAIN      45  43  93 SE12      29.69F
RICE LAKE      RAIN      46  45  97 SE6       29.71F
CHETEK         RAIN      46  46 100 SE12      29.71F
LADYSMITH      LGT RAIN  47  46  95 SE13G18   29.75F
EAU CLAIRE     RAIN      51  50  96 S10       29.71F FOG
MENOMONIE      RAIN      49  49  99 SE8       29.72S
NEW RICHMOND   RAIN      49  49  99 S12       29.68S
OSCEOLA        RAIN      50  50 100 S13       29.69S
$$

WIZ003>005-009-010-017-018-202300-
NORTH CENTRAL WISCONSIN

CITY           SKY/WX    TMP DP  RH WIND       PRES   REMARKS
MANITOWISH WTR RAIN      45  45 100 SE9       29.77F
ARBOR VITAE    RAIN      49  46  89 SE15      29.80F
WOODRUFF       RAIN      49  46  89 SE15      29.80F
RHINELANDER    CLOUDY    49  42  77 SE14      29.82F
EAGLE RIVER    CLOUDY    47  38  69 SE12G21   29.82F
LAND O LAKES   CLOUDY    47  38  70 SE14G21   29.84S
PHILLIPS       RAIN      45  45 100 SE9G16    29.75F
TOMAHAWK       LGT RAIN  45  41  87 SE5       29.83R
MEDFORD        HVY RAIN  45  43  93 SE12G22   29.79F
MERRILL        NOT AVBL
$$

WIZ029-030-035-036-043>047-202300-
CENTRAL WISCONSIN

CITY           SKY/WX    TMP DP  RH WIND       PRES   REMARKS
WAUSAU         CLOUDY    47  41  80 SE14      29.83S
MOSINEE        LGT RAIN  46  45  93 SE12G18   29.85S
MARSHFIELD     RAIN      47  45  93 SE9       29.79F FOG
STEVENS POINT  CLOUDY    48  43  82 SE6       29.87R
WAUPACA        CLOUDY    53  45  74 SE13      29.89F
WAUTOMA        CLOUDY    57  50  77 S7        29.89R
WISC RAPIDS    LGT RAIN  54  51  90 S9        29.85S FOG
CAMP DOUGLAS   NOT AVBL
$$

WIZ011>013-019>022-031-037>040-048>050-202300-
NORTHEAST WISCONSIN

CITY           SKY/WX    TMP DP  RH WIND       PRES   REMARKS
ANTIGO         CLOUDY    44  39  84 SE22      29.86F
SHAWANO        CLOUDY    51  43  74 SE10G17   29.92S
OCONTO         CLOUDY    48  36  61 SE13G18   29.95F
STURGEON BAY   CLOUDY    48  34  58 SE16G25   29.97F
GREEN BAY      CLOUDY    51  43  74 SE21G31   29.94F
MANITOWOC      NOT AVBL
APPLETON       CLOUDY    46  39  76 SE17      29.92F
CLINTONVILLE   PTSUNNY   50  41  71 SE13      29.89F
OSHKOSH        CLOUDY    50  44  80 SE15      29.90F
$$

WIZ032>034-041-042-053>061-202300-
SOUTHWEST WISCONSIN

CITY           SKY/WX    TMP DP  RH WIND       PRES   REMARKS
LA CROSSE      LGT RAIN  55  53  93 S13       29.76F FOG
SPARTA         LGT RAIN  55  53  94 S13G26    29.80S
VIROQUA        CLOUDY    54  53  97 SE16G22   29.80F
BOSCOBEL       LGT RAIN  58  54  86 CALM      29.83F FOG
PRAIRIE DU CHI RAIN      54  53  96 SE8       29.81F
PLATTEVILLE    CLOUDY    56  55  96 SE12G18   29.85S
$$

WIZ056-057-062-063-064-067-068-202300-
SOUTH CENTRAL WISCONSIN

CITY           SKY/WX    TMP DP  RH WIND       PRES   REMARKS
REEDSBURG      HVY RAIN  55  55  99 CALM      29.86S
BARABOO/DELLS  LGT RAIN  56  49  77 SE10      29.86S
LONE ROCK      RAIN      58  53  84 CALM      29.86S
MINERAL POINT  RAIN      59  55  88 SE12      29.85F
MADISON        CLOUDY    61  50  67 SE18      29.86F
MIDDLETON      CLOUDY    63  52  67 SE12      29.87S
WATERTOWN      CLOUDY    58  48  71 SE14G20   29.91F
MONROE         CLOUDY    63  52  67 SE18G24   29.86F
JANESVILLE     CLOUDY    64  52  63 SE14      29.89F
$$

WIZ051-052-058>065-066-070>072-202300-
SOUTHEAST WISCONSIN

CITY           SKY/WX    TMP DP  RH WIND       PRES   REMARKS
MILWAUKEE      CLOUDY    54  42  64 SE15      29.97F
WAUKESHA       PTSUNNY   55  43  62 SE16      29.97F
MILWAUKEE/TIMM CLOUDY    55  41  58 SE15      29.98F
RACINE         CLOUDY    53  41  63 SE14      29.98F
KENOSHA        CLOUDY    58  43  57 SE18G26   29.97F
FOND DU LAC    CLOUDY    53  43  68 SE18G26   29.90F
SHEBOYGAN      CLOUDY    47  38  71 S10       29.99F
WEST BEND      CLOUDY    52  45  76 SE9       29.97F
JUNEAU         CLOUDY    56  47  72 SE16      29.92F
$$

LSZ147-162-202300-
LAKE SUPERIOR

STATION/POSITION TIME  TEMP    WIND        PRES    WAVE
                       AIR SEA DIR/SP/G            HT/PER
                 (UTC) (F)     (DEG/KT/KT) (MB)    (FT/S)
DEVILS ISLAND    2100   37      70/  9/ 10 1007.1F
PORT WING        2130   36      60/  8/ 10 1005.8F
SAXON HARBOR     2030   54     180/  7/ 13 1006.8F
$$

LMZ867-665-643>646-202300-
LAKE MICHIGAN

STATION/POSITION TIME  TEMP    WIND        PRES    WAVE
                       AIR SEA DIR/SP/G            HT/PER
                 (UTC) (F)     (DEG/KT/KT) (MB)    (FT/S)
CHAMBERS ISLAND  2140   48     110/  8/ 17 1015.2F
NORTHPORT PIER   2140   39     150/  4/  7 1016.3F
SISTER BAY       2035   48     140/ 15/ 19   N/A
ALGOMA LAKESHORE 2110          150/  7/  8   N/A
KEWAUNEE LAKESHO 2130   41     150/  8/ 11 1015.3F
SHEBOYGAN LAKESH 2100   41     160/ 10/ 10 1016.2F
PORT WASHINGTON  2140   45     180/  3/  5 1016.6F
MILWAUKEE LAKESH 2130   43     150/  7/  9   N/A
KENOSHA   LAKESH 2100   43     150/  9/ 12 1015.2
$$

TC  - TEMPERATURE IN CELSIUS
VSB - VISIBILITY IN STATUTE MILES
WCI - WIND CHILL INDEX
HX  - HEAT INDEX





USA.gov is the U.S. government's official web portal to all federal, state and local government web resources and services.